EW2802 Weather Reports


Display with metric or nautical units.
time (UTC)temp
F
wind
direction
speed
MPH
gust
MPH
rain 1hr
in
rain 24hr
in
rain mn
in
humidity
%
barometer
mb
20180122121503 24 304 12.0 21.0 0.00 0.00 0.00 51 1013.2
20180122120003 24 305 11.0 25.0 0.00 0.00 0.00 52 1013.1
20180122115003 24 302 12.0 21.0 0.00 0.00 0.00 51 1013.1
20180122114003 24 302 11.0 19.0 0.00 0.00 0.00 54 1013.0
20180122113503 24 301 10.0 16.0 0.00 0.00 0.00 55 1012.9
20180122112503 24 302 10.0 18.0 0.00 0.00 0.00 55 1012.6
20180122112003 23 304 9.0 18.0 0.00 0.00 0.00 56 1012.5
20180122105003 23 307 11.0 17.0 0.00 0.00 0.00 62 1012.6
20180122103003 23 304 11.0 18.0 0.00 0.00 0.00 65 1012.6
20180122102503 23 307 10.0 17.0 0.00 0.00 0.00 66 1012.5
20180122101503 22 304 10.0 19.0 0.00 0.00 0.00 67 1012.5
20180122101003 22 305 9.0 17.0 0.00 0.00 0.00 67 1012.4
20180122100004 22 306 9.0 17.0 0.00 0.00 0.00 68 1012.4
20180122095503 22 304 10.0 15.0 0.00 0.00 0.00 69 1012.5
20180122095003 23 300 10.0 18.0 0.00 0.00 0.00 68 1012.5
20180122094503 22 300 10.0 18.0 0.00 0.00 0.00 69 1012.5
20180122093503 22 301 9.0 15.0 0.00 0.00 0.00 72 1012.5
20180122093003 22 300 9.0 15.0 0.00 0.00 0.00 71 1012.4
20180122092502 22 302 9.0 15.0 0.00 0.00 0.00 73 1012.4
20180122091003 22 300 10.0 17.0 0.00 0.00 0.00 76 1012.4
20180122090503 21 300 10.0 17.0 0.00 0.00 0.00 78 1012.3
20180122085503 18 285 6.0 12.0 0.00 0.00 0.00 89 1012.2
20180122085003 14 265 5.0 12.0 0.00 0.00 0.00 89 1012.0
20180122082503 10 234 4.0 8.0 0.00 0.00 0.00 89 1012.0
20180122082003 11 221 3.0 8.0 0.00 0.00 0.00 90 1012.1
20180122081503 11 213 2.0 5.0 0.00 0.00 0.00 90 1012.1
20180122080503 12 208 3.0 5.0 0.00 0.00 0.00 90 1012.0
20180122080004 12 208 3.0 5.0 0.00 0.00 0.00 90 1012.0
20180122075503 12 218 3.0 5.0 0.00 0.00 0.00 91 1012.0
20180122075004 12 215 3.0 6.0 0.00 0.00 0.00 91 1012.0
20180122074003 12 222 2.0 6.0 0.00 0.00 0.00 90 1012.0
20180122073503 12 226 1.0 3.0 0.00 0.00 0.00 91 1012.0
20180122072503 12 227 2.0 4.0 0.00 0.00 0.00 91 1011.8
20180122072003 12 228 2.0 4.0 0.00 0.00 0.00 91 1011.9
20180122071503 12 238 2.0 5.0 0.00 0.00 0.00 91 1011.8
20180122064503 14 252 1.0 4.0 0.00 0.00 0.00 92 1012.0
20180122063503 14 247 1.0 3.0 0.00 0.00 0.00 91 1011.9
20180122063003 15 247 1.0 3.0 0.00 0.00 0.00 91 1011.8
20180122060003 16 218 1.0 3.0 0.00 0.00 0.00 92 1011.9
20180122055503 16 229 1.0 3.0 0.00 0.00 0.00 92 1011.8
20180122055003 17 244 1.0 3.0 0.00 0.00 0.00 92 1011.8
20180122054003 18 288 0.0 2.0 0.00 0.00 0.00 92 1011.7
20180122053503 18 290 1.0 2.0 0.00 0.00 0.00 92 1011.7
20180122053003 18 289 1.0 2.0 0.00 0.00 0.00 92 1011.7
20180122050004 20 293 1.0 2.0 0.00 0.00 0.00 93 1011.5
20180122045503 20 295 0.0 2.0 0.00 0.00 0.00 93 1011.5
20180122044503 20 0 0.0 0.0 0.00 0.00 0.00 93 1011.4
20180122044004 20 295 0.0 1.0 0.00 0.00 0.00 93 1011.5
20180122043503 20 295 0.0 1.0 0.00 0.00 0.00 93 1011.4
20180122043003 20 296 0.0 1.0 0.00 0.00 0.00 93 1011.4
20180122041503 20 295 0.0 1.0 0.00 0.00 0.00 93 1011.1
20180122041003 20 0 0.0 0.0 0.00 0.00 0.00 93 1011.0
20180122040003 20 295 0.0 1.0 0.00 0.00 0.00 92 1011.2
20180122035503 20 295 0.0 1.0 0.00 0.00 0.00 92 1011.3
20180122034503 21 295 0.0 1.0 0.00 0.00 0.00 92 1011.1
20180122032503 20 337 1.0 3.0 0.00 0.00 0.00 92 1011.0
20180122031503 21 341 2.0 5.0 0.00 0.00 0.00 92 1010.8
20180122031003 21 344 3.0 8.0 0.00 0.00 0.00 92 1010.7
20180122030503 21 344 4.0 8.0 0.00 0.00 0.00 92 1010.6
20180122030003 21 343 4.0 9.0 0.00 0.00 0.00 92 1011.0
20180122024004 21 348 5.0 11.0 0.00 0.00 0.00 93 1010.7
20180122023503 21 345 6.0 13.0 0.00 0.00 0.00 93 1010.7
20180122022003 21 6 4.0 8.0 0.00 0.00 0.00 93 1010.5
20180122021503 21 14 3.0 7.0 0.00 0.00 0.00 93 1010.4
20180122020503 21 4 5.0 14.0 0.00 0.00 0.00 94 1010.1
20180122015503 21 2 7.0 14.0 0.00 0.00 0.00 93 1010.6
20180122014503 21 2 7.0 13.0 0.00 0.00 0.00 94 1010.5
20180122014003 22 8 6.0 13.0 0.00 0.00 0.00 94 1010.4
20180122012503 22 9 5.0 12.0 0.00 0.00 0.00 94 1010.2
20180122011503 22 11 4.0 9.0 0.00 0.00 0.00 95 1010.0
20180122010503 22 7 4.0 8.0 0.00 0.00 0.00 95 1009.8
20180122010004 22 8 3.0 6.0 0.00 0.00 0.00 95 1010.0
20180122005503 22 9 3.0 5.0 0.00 0.00 0.00 95 1009.9
20180122004003 22 18 3.0 5.0 0.00 0.00 0.00 95 1009.3
20180122003504 22 21 3.0 5.0 0.00 0.00 0.00 95 1009.3
20180122003003 22 19 3.0 7.0 0.00 0.00 0.00 95 1009.1
20180122001503 22 12 4.0 9.0 0.00 0.00 0.00 95 1008.7
20180122000003 23 10 5.0 10.0 0.00 0.00 0.00 95 1008.9
20180121235504 23 8 5.0 10.0 0.00 0.00 0.00 95 1008.8
20180121234504 23 10 4.0 8.0 0.00 0.00 0.00 95 1008.6
20180121234003 23 9 5.0 11.0 0.00 0.00 0.00 95 1008.5
20180121233504 23 8 5.0 11.0 0.00 0.00 0.00 95 1008.4
20180121233003 23 9 5.0 10.0 0.00 0.00 0.00 95 1008.3
20180121232504 23 8 5.0 10.0 0.00 0.00 0.00 95 1008.1
20180121232003 23 10 5.0 10.0 0.00 0.00 0.00 95 1007.9
20180121231003 23 8 7.0 12.0 0.00 0.00 0.00 95 1007.6
20180121230003 24 24 5.0 15.0 0.00 0.00 0.00 95 1007.6
20180121225003 24 27 3.0 10.0 0.00 0.00 0.00 95 1007.2
20180121224003 24 18 4.0 8.0 0.00 0.00 0.00 95 1006.7
20180121223504 24 13 5.0 10.0 0.00 0.00 0.00 95 1006.5
20180121223003 24 23 6.0 14.0 0.00 0.00 0.00 95 1006.4
20180121222503 24 38 5.0 15.0 0.00 0.00 0.00 95 1006.2
20180121222003 25 33 4.0 15.0 0.00 0.00 0.00 95 1006.0
20180121221003 25 15 3.0 5.0 0.00 0.00 0.00 95 1005.7
20180121220004 25 21 3.0 5.0 0.00 0.00 0.00 95 1006.2
20180121215503 25 18 3.0 5.0 0.00 0.00 0.00 95 1006.1
20180121215003 25 13 3.0 5.0 0.00 0.00 0.00 95 1005.9
20180121214003 25 11 3.0 5.0 0.00 0.00 0.00 95 1005.6
20180121213504 24 12 3.0 7.0 0.00 0.00 0.00 94 1005.5
20180121212003 24 3 5.0 9.0 0.00 0.00 0.00 94 1005.3
20180121210003 24 4 5.0 11.0 0.00 0.00 0.00 94 1005.3
20180121204503 24 3 6.0 12.0 0.00 0.00 0.00 95 1005.0
20180121204003 24 5 6.0 14.0 0.00 0.00 0.00 94 1004.8
20180121203503 24 7 8.0 14.0 0.00 0.00 0.00 94 1004.6
20180121203004 24 7 8.0 13.0 0.00 0.00 0.00 94 1004.5
20180121202004 24 5 8.0 14.0 0.00 0.00 0.00 95 1004.1
20180121195503 24 1 8.0 16.0 0.00 0.00 0.00 95 1004.4
20180121195003 24 2 8.0 13.0 0.00 0.00 0.00 95 1004.2
20180121194503 24 4 8.0 12.0 0.00 0.00 0.00 95 1004.2
20180121193004 24 7 6.0 11.0 0.00 0.00 0.00 95 1004.1
20180121192503 24 8 7.0 13.0 0.00 0.00 0.00 95 1004.1
20180121192003 24 10 6.0 13.0 0.00 0.00 0.00 95 1004.0
20180121191503 24 6 6.0 13.0 0.00 0.00 0.00 95 1003.9
20180121190503 24 4 7.0 11.0 0.00 0.00 0.00 95 1003.7
20180121190003 24 3 8.0 12.0 0.00 0.00 0.00 95 1004.2
20180121185504 24 6 8.0 12.0 0.00 0.00 0.00 95 1004.2
20180121185003 24 5 8.0 13.0 0.00 0.00 0.00 95 1004.2
20180121183504 25 7 8.0 13.0 0.00 0.00 0.00 95 1004.2
20180121182504 24 7 7.0 14.0 0.00 0.00 0.00 96 1004.2
20180121180004 25 4 6.0 18.0 0.00 0.00 0.00 95 1004.6
20180121175503 25 9 4.0 9.0 0.00 0.00 0.00 96 1004.7
20180121175004 25 8 4.0 9.0 0.00 0.00 0.00 96 1004.4
20180121174003 25 9 5.0 9.0 0.00 0.00 0.00 95 1004.4
20180121173003 26 4 5.0 9.0 0.00 0.00 0.00 96 1004.4
20180121172504 26 5 5.0 9.0 0.00 0.00 0.00 96 1004.3
20180121172003 26 15 3.0 9.0 0.00 0.00 0.00 96 1004.3
20180121171504 27 24 2.0 5.0 0.00 0.00 0.00 96 1004.1
20180121171003 26 24 2.0 5.0 0.00 0.00 0.00 96 1004.0
20180121165003 26 9 2.0 6.0 0.00 0.00 0.00 96 1004.4
20180121163003 26 34 3.0 6.0 0.00 0.00 0.00 96 1004.2
20180121162004 26 39 2.0 5.0 0.00 0.00 0.00 96 1004.2
20180121161004 26 35 2.0 5.0 0.00 0.00 0.00 96 1004.0
20180121160003 26 45 3.0 8.0 0.00 0.00 0.00 96 1004.2
20180121155504 26 45 3.0 8.0 0.00 0.00 0.00 96 1004.2
20180121153003 26 33 2.0 5.0 0.00 0.00 0.00 96 1004.1
20180121152003 26 34 2.0 6.0 0.00 0.00 0.00 96 1003.9
20180121151503 26 31 2.0 4.0 0.00 0.00 0.00 96 1003.9
20180121144504 26 59 3.0 5.0 0.00 0.00 0.00 96 1003.9
20180121144003 26 60 3.0 5.0 0.00 0.00 0.00 96 1003.9
20180121143504 26 66 3.0 5.0 0.00 0.00 0.00 96 1003.9
20180121143003 26 63 4.0 9.0 0.00 0.00 0.00 96 1003.9
20180121142003 25 67 6.0 9.0 0.00 0.00 0.00 96 1003.7
20180121141504 25 72 6.0 10.0 0.00 0.00 0.00 96 1003.6
20180121141003 25 71 7.0 11.0 0.00 0.00 0.00 96 1003.4
20180121135504 25 73 6.0 10.0 0.00 0.00 0.00 96 1003.7
20180121135003 25 70 5.0 10.0 0.00 0.00 0.00 96 1003.6
20180121134503 25 71 5.0 10.0 0.00 0.00 0.00 96 1003.6
20180121133503 25 74 5.0 9.0 0.00 0.00 0.00 96 1003.5
20180121132504 25 80 6.0 10.0 0.00 0.00 0.00 96 1003.5
20180121131503 26 82 4.0 8.0 0.00 0.00 0.00 96 1003.6
20180121131004 26 86 4.0 8.0 0.00 0.00 0.00 96 1003.4
20180121130004 26 97 3.0 8.0 0.00 0.00 0.00 96 1003.6
20180121125504 26 104 3.0 7.0 0.00 0.00 0.00 95 1003.6
20180121125003 26 105 3.0 7.0 0.00 0.00 0.00 95 1003.6
20180121124003 26 94 4.0 8.0 0.00 0.00 0.00 95 1003.6
20180121123503 26 90 4.0 9.0 0.00 0.00 0.00 95 1003.6